Location: Unspecified
(0.0000°N, 0.0000°E)
Time: 22:04:36
(UTC+00:00)

ACS3 Solar Sail - Pass Details

Date: 02 November 2024
Orbit: 961 x 1024 km, 97.5° (Epoch: 02 November)

Event Time Altitude Azimuth Distance (km) Brightness Sun altitude
Rises 20:14:55 0° 176° (S) 3,759 5.0 -36.3°
Reaches altitude 10° 20:17:27 10° 179° (S) 2,810 4.3 -36.9°
Enters shadow 20:19:47 24° 186° (S) 1,979 3.5 -37.5°
